Location: Eschertshofen
(49.3064°N, 11.5756°E)
Time: 15:09:51
(UTC+00:00)

ATLAS CENTAUR R/B - Pass Details

Date: 18 September 2020
Orbit: 479 x 667 km, 64.7° (Epoch: 12 October)

Event Time Altitude Azimuth Distance (km) Brightness Sun altitude
Rises 17:47:43 0° 252° (WSW) 2,673 6.1 -5.4°
Reaches altitude 10° 17:50:14 10° 265° (W) 1,754 5.5 -5.8°
Maximum altitude 17:53:31 26° 323° (NW) 1,040 3.4 -6.3°
Drops below altitude 10° 17:56:43 10° 21° (NNE) 1,695 3.7 -6.8°
Sets 17:59:07 0° 35° (NE) 2,564 4.5 -7.2°
